UAL3170 KIAH-KABQ

Flight info

Callsign UAL3170
Flight time N/A
Altitude 38000
Route STYCK8 DOLEY FUZ TXO RECKN COLTR4
Aircraft A20N/M-SDE2E3FGHIRWXY/LB1

Departure

Time 2026-05-05 01:47
Airport George Bush Intercontinental Airport (KIAH)

Arrival

Time N/A
Airport Albuquerque International Sunport (KABQ)
Time Latitude Longitude Altitude Speed Heading
2026-05-05 01:21 29.98944 -95.34108 97 ft 0 kts 244°
2026-05-05 01:39 29.98949 -95.34095 99 ft 4 kts 251°
2026-05-05 01:39 29.98954 -95.34065 98 ft 4 kts 279°
2026-05-05 01:39 29.98944 -95.34040 98 ft 4 kts 333°
2026-05-05 01:40 29.98934 -95.34035 98 ft 0 kts 360°
2026-05-05 01:42 29.98949 -95.34036 97 ft 8 kts 356°
2026-05-05 01:42 29.99031 -95.34042 99 ft 16 kts 357°
2026-05-05 01:42 29.99088 -95.34142 98 ft 19 kts 271°
2026-05-05 01:42 29.99087 -95.34309 97 ft 22 kts 269°
2026-05-05 01:43 29.99084 -95.34495 97 ft 25 kts 268°
2026-05-05 01:43 29.99090 -95.34702 98 ft 27 kts 272°
2026-05-05 01:43 29.99089 -95.34927 99 ft 29 kts 269°
2026-05-05 01:43 29.99084 -95.35167 95 ft 31 kts 268°
2026-05-05 01:44 29.99087 -95.35419 95 ft 32 kts 266°
2026-05-05 01:44 29.99086 -95.35651 98 ft 25 kts 274°
2026-05-05 01:44 29.99098 -95.35823 97 ft 18 kts 274°
2026-05-05 01:44 29.99080 -95.35943 98 ft 16 kts 248°
2026-05-05 01:45 29.99013 -95.36041 99 ft 13 kts 188°
2026-05-05 01:45 29.98957 -95.36012 100 ft 10 kts 156°
2026-05-05 01:45 29.98878 -95.35974 101 ft 15 kts 163°
2026-05-05 01:45 29.98775 -95.35922 102 ft 18 kts 148°
2026-05-05 01:46 29.98768 -95.35795 105 ft 15 kts 95°
2026-05-05 01:46 29.98721 -95.35746 104 ft 6 kts 153°
2026-05-05 01:46 29.98712 -95.35741 104 ft 3 kts 153°
2026-05-05 01:46 29.98617 -95.35684 102 ft 49 kts 152°
2026-05-05 01:47 29.98053 -95.35341 101 ft 130 kts 152°
2026-05-05 01:47 29.97075 -95.34731 209 ft 181 kts 152°
2026-05-05 01:47 29.95924 -95.34006 849 ft 200 kts 153°
2026-05-05 01:47 29.94625 -95.33308 1679 ft 206 kts 163°
2026-05-05 01:48 29.93230 -95.33048 2725 ft 202 kts 183°
2026-05-05 01:48 29.91878 -95.33374 3794 ft 196 kts 205°
2026-05-05 01:48 29.90787 -95.34262 4813 ft 194 kts 228°
2026-05-05 01:48 29.90076 -95.35590 5597 ft 198 kts 251°
2026-05-05 01:49 29.89882 -95.37156 6410 ft 199 kts 274°
2026-05-05 01:49 29.90249 -95.38697 7131 ft 203 kts 296°
2026-05-05 01:49 29.91149 -95.39965 7842 ft 209 kts 319°
2026-05-05 01:49 29.92457 -95.40731 8530 ft 221 kts 342°
2026-05-05 01:50 29.94072 -95.40817 8962 ft 247 kts
2026-05-05 01:50 29.95815 -95.40288 9329 ft 271 kts
2026-05-05 01:50 29.97748 -95.39978 9743 ft 288 kts 359°
2026-05-05 01:50 29.99773 -95.39925 10398 ft 296 kts 355°
2026-05-05 01:51 30.01905 -95.39989 10706 ft 318 kts 354°
2026-05-05 01:51 30.04194 -95.40105 11014 ft 337 kts 353°
2026-05-05 01:51 30.06556 -95.40226 11755 ft 340 kts 353°
2026-05-05 01:51 30.08894 -95.40553 12620 ft 338 kts 344°
2026-05-05 01:52 30.13077 -95.42343 14100 ft 337 kts 330°
2026-05-05 01:52 30.17304 -95.44738 15562 ft 340 kts 330°
2026-05-05 01:52 30.21577 -95.47137 16968 ft 343 kts 330°
2026-05-05 01:52 30.25896 -95.49566 18334 ft 347 kts 330°
2026-05-05 01:53 30.30264 -95.52028 19467 ft 352 kts 329°
2026-05-05 01:53 30.37315 -95.56005 21396 ft 356 kts 328°
2026-05-05 01:53 30.46284 -95.61077 23693 ft 362 kts 328°
2026-05-05 01:53 30.55450 -95.66251 25456 ft 371 kts 329°
2026-05-05 01:54 30.64946 -95.71280 27182 ft 379 kts 328°
2026-05-05 01:54 30.74686 -95.76488 28599 ft 389 kts 328°
2026-05-05 01:54 30.84621 -95.81813 30087 ft 396 kts 328°
2026-05-05 01:54 30.94708 -95.87237 31414 ft 400 kts 328°
2026-05-05 01:55 31.04742 -95.92640 33065 ft 395 kts 327°
2026-05-05 01:55 31.14765 -95.97698 34641 ft 393 kts 333°
2026-05-05 01:55 31.25063 -96.01678 35844 ft 387 kts 332°
2026-05-05 01:55 31.35233 -96.05630 36912 ft 382 kts 332°
2026-05-05 01:56 31.45082 -96.09458 37854 ft 375 kts 331°
2026-05-05 01:56 31.54981 -96.13325 37871 ft 375 kts 331°
2026-05-05 01:56 31.74686 -96.21031 37843 ft 369 kts 331°
2026-05-05 01:57 31.94361 -96.28764 37854 ft 372 kts 330°
2026-05-05 01:57 32.13886 -96.36496 37824 ft 367 kts 328°
2026-05-05 01:58 32.22388 -96.42452 37853 ft 348 kts 312°
2026-05-05 01:58 32.29391 -96.50244 37824 ft 346 kts 310°
2026-05-05 01:58 32.43330 -96.65964 37818 ft 347 kts 310°
2026-05-05 01:59 32.57201 -96.81685 37801 ft 345 kts 309°
2026-05-05 01:59 32.71111 -96.97520 37803 ft 344 kts 309°
2026-05-05 02:00 32.84884 -97.13288 37785 ft 343 kts 307°
2026-05-05 02:00 32.90207 -97.22406 37774 ft 333 kts 293°
2026-05-05 02:00 32.93521 -97.32684 37774 ft 333 kts 289°
2026-05-05 02:01 32.99918 -97.53309 37946 ft 332 kts 289°
2026-05-05 02:01 33.06286 -97.74023 37785 ft 335 kts 289°
2026-05-05 02:02 33.12633 -97.94814 37774 ft 333 kts 289°
2026-05-05 02:02 33.18955 -98.15662 37750 ft 334 kts 288°
2026-05-05 02:03 33.25187 -98.36361 37711 ft 333 kts 288°
2026-05-05 02:03 33.31447 -98.57302 37723 ft 335 kts 288°
2026-05-05 02:04 33.37711 -98.78400 37737 ft 337 kts 287°
2026-05-05 02:04 33.43880 -98.99328 37689 ft 333 kts 287°
2026-05-05 02:05 33.50021 -99.20313 37666 ft 334 kts 287°
2026-05-05 02:05 33.56128 -99.41327 37650 ft 334 kts 287°
2026-05-05 02:06 33.62147 -99.62194 37649 ft 329 kts 287°
2026-05-05 02:06 33.68088 -99.82940 37645 ft 328 kts 287°
2026-05-05 02:07 33.74000 -100.03725 37602 ft 328 kts 286°
2026-05-05 02:07 33.76923 -100.14074 36077 ft 331 kts 287°
2026-05-05 02:07 33.79944 -100.24794 35680 ft 338 kts 287°
2026-05-05 02:08 33.85955 -100.46254 35644 ft 339 kts 287°
2026-05-05 02:08 33.91955 -100.67835 35644 ft 341 kts 286°
2026-05-05 02:09 33.97959 -100.89600 35659 ft 341 kts 286°
2026-05-05 02:09 34.03893 -101.11279 35663 ft 340 kts 286°
2026-05-05 02:10 34.09750 -101.32839 35675 ft 342 kts 285°
2026-05-05 02:10 34.15668 -101.54803 35763 ft 344 kts 285°
2026-05-05 02:11 34.21553 -101.76814 35792 ft 344 kts 285°
2026-05-05 02:11 34.27397 -101.98854 35722 ft 344 kts 285°
2026-05-05 02:12 34.36069 -102.31894 35700 ft 343 kts 284°
2026-05-05 02:13 34.41782 -102.53887 35720 ft 342 kts 284°
2026-05-05 02:13 34.47455 -102.75879 35727 ft 342 kts 284°
2026-05-05 02:14 34.51270 -102.98286 35753 ft 339 kts 277°
2026-05-05 02:14 34.54021 -103.20918 35728 ft 340 kts 276°
2026-05-05 02:15 34.56729 -103.43621 35695 ft 340 kts 276°
2026-05-05 02:15 34.60302 -103.66130 35655 ft 343 kts 282°
2026-05-05 02:16 34.65722 -103.88127 35645 ft 344 kts 282°
2026-05-05 02:16 34.68994 -104.01493 35692 ft 345 kts 282°